[[{"header":{"parameterUnit":"m.s-1","parameterCategory":1,"la1":30.2991,"la2":30.254,"lo1":-89.0895,"lo2":-89.0444,"dy":0.0017,"dx":0.0017,"nx":28,"ny":28,"refTime":"2025-08-10T03:00:00:Z","depth":0,"parameterNumber":2,"parameterNumberName":"U-component_of_WINDS"},"data":[0,0,0,0,0,0,0,0,0,0,0,0,0,0,0,0,0,0,0,0,0,0,0,0,0,0,0,0,0,0,0,0,0,0,0,0,0,0,0,0,0,0,0,0,0,0,0,0,0,0,0,0,0,0,0,0,0,0,-3.5526,-3.5526,0,-3.5518,-3.5518,-3.5518,-3.5405,-3.5402,-3.5399,-3.5397,-3.539,-3.5392,-3.5395,0,0,0,0,0,0,0,0,0,0,0,0,0,-3.5445,-3.5447,-3.5526,-3.5526,-3.5526,-3.5518,-3.5518,-3.5518,-3.5406,-3.5402,-3.5399,-3.5395,-3.5389,-3.5392,-3.5395,0,0,0,0,0,0,0,0,0,0,0,0,0,-3.5463,-3.5447,-3.5526,-3.5469,-3.5463,-3.5518,-3.5518,-3.5518,-3.5406,-3.5402,-3.5398,-3.5394,-3.5388,-3.5392,-3.5396,-3.5505,0,0,-3.5407,-3.5409,0,0,0,0,0,0,0,0,-3.5462,-3.5466,-3.5477,-3.5473,-3.5467,-3.5458,-3.5487,-3.5514,-3.5408,-3.5428,-3.5397,-3.5392,-3.5416,-3.5417,-3.5425,-3.5504,-3.5504,-3.5407,-3.541,-3.5411,-3.5412,0,0,0,0,0,0,0,-3.5461,-3.5466,-3.5523,-3.5477,-3.5471,-3.5444,-3.5442,-3.5491,-3.5446,-3.5426,-3.5418,-3.5418,-3.5413,-3.5422,-3.5424,-3.5504,-3.5407,-3.5411,-3.5413,-3.5414,-3.5675,-3.5679,0,0,0,0,0,0,-3.5467,-3.5465,-3.5523,-3.5522,-3.5454,-3.5449,-3.5446,-3.5465,-3.5446,-3.5438,-3.5422,-3.5413,-3.5418,-3.542,-3.5424,-3.5552,-3.5411,-3.5415,-3.5417,-3.567,-3.5676,-3.5681,0,0,0,0,0,0,-3.5466,-3.5473,-3.5523,-3.5492,-3.5496,-3.5455,-3.5477,-3.5467,-3.5477,-3.5443,-3.5434,-3.544,-3.5415,-3.5419,-3.5486,-3.555,-3.5416,-3.542,-3.5664,-3.5672,-3.5678,-3.5809,0,0,0,0,0,0,-3.5464,-3.5474,-3.5514,-3.5493,-3.5498,-3.5585,-3.5481,-3.547,-3.5483,-3.5472,-3.5457,-3.5451,-3.5411,-3.5481,-3.549,-3.5553,-3.5423,-3.5658,-3.5668,-3.5676,-3.5799,-3.5819,-3.5837,0,0,0,0,0,-3.5462,-3.5551,-3.5517,-3.5524,-3.5548,-3.5589,-3.5592,-3.5545,-3.5489,-3.553,-3.5508,-3.5451,-3.5542,-3.5489,-3.5498,-3.5563,-3.5654,-3.5665,-3.5675,-3.579,-3.5815,-3.5837,0,0,0,0,0,0,-3.558,-3.5547,-3.5509,-3.5594,-3.5596,-3.557,-3.562,-3.5573,-3.559,-3.5578,-3.5519,-3.5517,-3.5594,-3.5585,-3.5527,-3.5669,-3.5588,-3.5601,-3.5672,-3.5696,-3.5715,-3.5716,-3.5426,0,0,0,0,0,-3.5616,-3.5652,-3.5621,-3.57,-3.5702,-3.5662,-3.5678,-3.5642,-3.564,-3.564,-3.5623,-3.5625,-3.5654,-3.5674,-3.5699,-3.5796,-3.5793,-3.5846,-3.5865,-3.5881,-3.5893,-3.5947,-3.5971,-3.5715,-3.5715,-3.5715,0,0,-3.5691,-3.5678,-3.5704,-3.5723,-3.572,-3.576,-3.5663,-3.5708,-3.5737,-3.5647,-3.571,-3.5698,-3.5696,-3.578,-3.5816,-3.5775,-3.5963,-3.5895,-3.5908,-3.5911,-3.596,-3.5984,-3.6006,-3.5722,-3.5721,-3.572,0,0,-3.5848,-3.5841,-3.5906,-3.5905,-3.5902,-3.5874,-3.589,-3.5872,-3.5861,-3.5923,-3.5858,-3.5891,-3.5942,-3.5944,-3.5951,-3.6111,-3.606,-3.6121,-3.6223,-3.6275,-3.6295,-3.6313,-3.6372,-3.6394,-3.6133,-3.6133,-3.6133,0,-3.5942,-3.5998,-3.5946,-3.5996,-3.6008,-3.5928,-3.5995,-3.5996,-3.6002,-3.6012,-3.5965,-3.6028,-3.6021,-3.6105,-3.6145,-3.6153,-3.617,-3.6123,-3.6297,-3.6314,-3.6329,-3.6385,-3.6407,-3.6141,-3.614,-3.6139,-3.6138,0,-3.6115,-3.6155,-3.6208,-3.6216,-3.6233,-3.6291,-3.6249,-3.6272,-3.6235,-3.6213,-3.6279,-3.6268,-3.629,-3.6306,-3.627,-3.6386,-3.6361,-3.6307,-3.6225,-3.6362,-3.6414,-3.6434,-3.6152,-3.6149,-3.6147,-3.6145,0,0,-3.6346,-3.6325,-3.6345,-3.6349,-3.634,-3.637,-3.6426,-3.6447,-3.647,-3.6476,-3.6522,-3.6568,-3.6518,-3.6527,-3.649,-3.6536,-3.6666,-3.6475,-3.6475,-3.6513,-3.6796,-3.6839,-3.6864,-3.6632,-3.6635,-3.6638,-3.6797,0,-3.6499,-3.6592,-3.6548,-3.6647,-3.6685,-3.6611,-3.6659,-3.666,-3.6641,-3.6671,-3.6649,-3.6684,-3.6614,-3.6619,-3.6661,-3.6641,-3.6723,-3.6629,-3.6676,-3.6678,-3.668,-3.6891,-3.6935,-3.7086,-3.6817,-3.682,-3.6822,0,-3.669,-3.6705,-3.6809,-3.6795,-3.6809,-3.6853,-3.6871,-3.69,-3.6899,-3.6882,-3.6894,-3.6847,-3.6901,-3.6819,-3.6895,-3.6832,-3.6848,-3.6842,-3.6846,-3.685,-3.676,-3.6902,-3.7132,-3.7156,-3.6853,-3.6851,-3.6848,0,-3.6851,-3.6897,-3.6966,-3.697,-3.6955,-3.6989,-3.6984,-3.6979,-3.6996,-3.7011,-3.7022,-3.7043,-3.7055,-3.7073,-3.7034,-3.6978,-3.7116,-3.703,-3.7105,-3.7107,-3.7139,-3.7137,-3.7377,-3.7147,-3.7146,-3.7146,-3.7145,0,-3.7028,-3.7094,-3.7038,-3.7081,-3.7153,-3.7102,-3.7175,-3.7163,-3.716,-3.7199,-3.7135,-3.7174,-3.7119,-3.7152,-3.7122,-3.719,-3.7196,-3.7185,-3.7176,-3.7192,-3.7193,-3.7203,-3.7192,-3.7152,-3.715,-3.7149,-3.7148,0,-3.722,-3.7185,-3.7255,-3.7236,-3.7232,-3.7287,-3.7271,-3.731,-3.7287,-3.7337,-3.7346,-3.7311,-3.7347,-3.7309,-3.7343,-3.7322,-3.7415,-3.739,-3.7416,-3.741,-3.7488,-3.7482,-3.7742,-3.7775,-3.7523,-3.7525,-3.7527,0,-3.7336,-3.7386,-3.7372,-3.7394,-3.7394,-3.7429,-3.7446,-3.7398,-3.7418,-3.7422,-3.7462,-3.7492,-3.7514,-3.7576,-3.7554,-3.758,-3.7556,-3.7646,-3.7559,-3.7574,-3.756,-3.7558,-3.7564,-3.7664,-3.7667,-3.7669,-3.7671,0,-3.7547,-3.7527,-3.7554,-3.7576,-3.7598,-3.7612,-3.7622,-3.7644,-3.7593,-3.762,-3.7656,-3.7674,-3.7708,-3.7741,-3.776,-3.7756,-3.7707,-3.7698,-3.7717,-3.7734,-3.7748,-3.7744,-3.7466,-3.7693,-3.7691,-3.7689,-3.7688,-3.7687,-3.7705,-3.7747,-3.7745,-3.7777,-3.778,-3.7791,-3.7827,-3.7809,-3.7839,-3.7863,-3.7833,-3.7878,-3.7878,-3.7899,-3.7901,-3.7937,-3.7899,-3.7926,-3.7933,-3.7941,-3.7954,-3.7741,-3.794,-3.7939,-3.7939,-3.7938,-3.7938,0,-3.7914,-3.7909,-3.794,-3.7956,-3.7982,-3.7933,-3.7941,-3.7967,-3.8008,-3.8012,-3.8035,-3.8079,-3.811,-3.8091,-3.8118,-3.815,-3.8129,-3.8159,-3.8157,-3.8158,-3.7985,-3.7967,-3.8177,-3.8177,-3.8177,-3.8177,-3.8177,-3.8177,-3.8026,-3.8095,-3.8075,-3.8145,-3.8139,-3.8184,-3.8193,-3.8204,-3.8207,-3.8258,-3.8284,-3.8271,-3.8267,-3.8293,-3.832,-3.8314,-3.8328,-3.8367,-3.8353,-3.8193,-3.817,-3.8147,-3.813,-3.837,-3.8371,-3.8523,-3.8524,-3.8526]},{"header":{"parameterUnit":"m.s-1","parameterCategory":1,"la1":30.2991,"la2":30.254,"lo1":-89.0895,"lo2":-89.0444,"dy":0.0017,"dx":0.0017,"nx":28,"ny":28,"refTime":"2025-08-10T03:00:00:Z","depth":0,"parameterNumber":3,"parameterNumberName":"V-component_of_WINDS"},"data":[0,0,0,0,0,0,0,0,0,0,0,0,0,0,0,0,0,0,0,0,0,0,0,0,0,0,0,0,0,0,0,0,0,0,0,0,0,0,0,0,0,0,0,0,0,0,0,0,0,0,0,0,0,0,0,0,0,0,-1.4972,-1.4972,0,-1.4988,-1.4988,-1.4988,-1.4946,-1.4944,-1.4943,-1.4942,-1.4958,-1.4959,-1.4961,0,0,0,0,0,0,0,0,0,0,0,0,0,-1.4904,-1.4906,-1.4972,-1.4972,-1.4972,-1.4988,-1.4988,-1.4988,-1.4946,-1.4944,-1.4943,-1.4941,-1.4957,-1.4959,-1.4961,0,0,0,0,0,0,0,0,0,0,0,0,0,-1.4928,-1.4906,-1.4972,-1.4953,-1.4952,-1.4988,-1.4988,-1.4988,-1.4946,-1.4944,-1.4942,-1.494,-1.4957,-1.4959,-1.4962,-1.5016,0,0,-1.4969,-1.497,0,0,0,0,0,0,0,0,-1.4927,-1.4931,-1.4956,-1.4955,-1.4953,-1.4963,-1.497,-1.4998,-1.4947,-1.4948,-1.4942,-1.4939,-1.4961,-1.4963,-1.497,-1.5017,-1.5018,-1.4969,-1.4971,-1.4972,-1.4973,0,0,0,0,0,0,0,-1.4925,-1.493,-1.4978,-1.4956,-1.4954,-1.4944,-1.4945,-1.4975,-1.4966,-1.4948,-1.4945,-1.4947,-1.496,-1.4968,-1.497,-1.5018,-1.4969,-1.4971,-1.4973,-1.4974,-1.511,-1.5112,0,0,0,0,0,0,-1.4926,-1.4929,-1.4978,-1.4979,-1.4935,-1.4946,-1.4948,-1.4962,-1.4965,-1.4964,-1.4949,-1.4945,-1.4965,-1.4968,-1.4971,-1.5036,-1.4972,-1.4974,-1.4976,-1.5108,-1.5111,-1.5113,0,0,0,0,0,0,-1.4925,-1.4931,-1.4977,-1.4953,-1.4958,-1.495,-1.4966,-1.4963,-1.4971,-1.4966,-1.4964,-1.4959,-1.4963,-1.4967,-1.5005,-1.5036,-1.4975,-1.4978,-1.5106,-1.5109,-1.5112,-1.5166,0,0,0,0,0,0,-1.4923,-1.4931,-1.4952,-1.4954,-1.4959,-1.5012,-1.4967,-1.4965,-1.4976,-1.4971,-1.4975,-1.4974,-1.4962,-1.5002,-1.5008,-1.5038,-1.498,-1.5103,-1.5107,-1.5111,-1.5162,-1.5171,-1.5179,0,0,0,0,0,-1.4921,-1.4966,-1.4953,-1.4959,-1.4986,-1.5014,-1.5017,-1.5003,-1.4978,-1.4999,-1.4996,-1.4974,-1.5031,-1.5006,-1.5012,-1.5044,-1.5101,-1.5106,-1.5111,-1.5158,-1.5169,-1.5178,0,0,0,0,0,0,-1.4969,-1.4966,-1.4952,-1.4999,-1.5007,-1.5007,-1.5033,-1.5015,-1.503,-1.5025,-1.5006,-1.5007,-1.5049,-1.505,-1.5022,-1.5097,-1.5062,-1.5068,-1.5096,-1.5106,-1.5114,-1.5114,-1.4982,0,0,0,0,0,-1.4985,-1.5008,-1.5004,-1.5047,-1.5052,-1.5042,-1.5053,-1.5041,-1.5049,-1.5052,-1.5051,-1.5059,-1.5078,-1.5092,-1.511,-1.5161,-1.5161,-1.5185,-1.5194,-1.5201,-1.5207,-1.5234,-1.5245,-1.5129,-1.5129,-1.5129,0,0,-1.5019,-1.502,-1.5036,-1.5057,-1.5061,-1.5086,-1.5045,-1.5072,-1.509,-1.5056,-1.5092,-1.5092,-1.5099,-1.5144,-1.5163,-1.5146,-1.5239,-1.5207,-1.5213,-1.5215,-1.524,-1.5252,-1.5261,-1.5132,-1.5132,-1.5131,0,0,-1.5093,-1.5096,-1.5132,-1.5137,-1.5144,-1.5137,-1.5146,-1.5148,-1.5146,-1.5182,-1.5157,-1.5177,-1.5211,-1.5218,-1.5225,-1.53,-1.5281,-1.5306,-1.5352,-1.5378,-1.5388,-1.5396,-1.5424,-1.5434,-1.5312,-1.5312,-1.5312,0,-1.5134,-1.517,-1.5153,-1.5182,-1.5192,-1.5161,-1.5197,-1.5203,-1.5216,-1.5223,-1.5203,-1.5245,-1.5247,-1.5294,-1.5312,-1.5318,-1.5328,-1.5307,-1.5388,-1.5396,-1.5403,-1.5429,-1.544,-1.5316,-1.5315,-1.5315,-1.5315,0,-1.5221,-1.5246,-1.5274,-1.5287,-1.53,-1.5332,-1.5319,-1.5334,-1.532,-1.5315,-1.5352,-1.5353,-1.5371,-1.5381,-1.5368,-1.5425,-1.5414,-1.5391,-1.5355,-1.5418,-1.5442,-1.5452,-1.532,-1.5319,-1.5318,-1.5317,0,0,-1.5328,-1.533,-1.5341,-1.5346,-1.5351,-1.537,-1.5401,-1.5418,-1.5431,-1.544,-1.5466,-1.5495,-1.5473,-1.5482,-1.5469,-1.5492,-1.5553,-1.5466,-1.5466,-1.5484,-1.5617,-1.5635,-1.5647,-1.5539,-1.554,-1.5542,-1.5616,0,-1.5402,-1.5456,-1.544,-1.5493,-1.5517,-1.5487,-1.5513,-1.5519,-1.5514,-1.5533,-1.5527,-1.5549,-1.5518,-1.5523,-1.5545,-1.5541,-1.5579,-1.5535,-1.5563,-1.5564,-1.5564,-1.566,-1.568,-1.575,-1.5626,-1.5627,-1.5628,0,-1.5497,-1.551,-1.5566,-1.5566,-1.5575,-1.56,-1.5614,-1.5632,-1.5637,-1.5632,-1.5641,-1.5623,-1.5653,-1.5616,-1.5657,-1.5627,-1.5637,-1.5636,-1.5639,-1.5642,-1.5602,-1.5668,-1.5772,-1.5784,-1.5643,-1.5642,-1.5641,0,-1.5571,-1.5602,-1.564,-1.5645,-1.5646,-1.5664,-1.5666,-1.5669,-1.568,-1.5692,-1.5699,-1.5714,-1.5723,-1.5735,-1.5721,-1.5695,-1.5765,-1.5726,-1.5762,-1.5762,-1.578,-1.5779,-1.5889,-1.5783,-1.5783,-1.5783,-1.5783,0,-1.5657,-1.5693,-1.5673,-1.5697,-1.5735,-1.5716,-1.5755,-1.5753,-1.5756,-1.5778,-1.5752,-1.5773,-1.5753,-1.5772,-1.5761,-1.5797,-1.5801,-1.5798,-1.5795,-1.5802,-1.5802,-1.581,-1.5805,-1.5786,-1.5785,-1.5784,-1.5784,0,-1.5748,-1.5736,-1.5775,-1.5773,-1.5773,-1.5802,-1.5799,-1.5821,-1.5813,-1.5842,-1.5847,-1.5836,-1.5857,-1.5844,-1.5866,-1.5858,-1.5906,-1.5895,-1.5904,-1.5902,-1.5939,-1.5937,-1.6059,-1.6075,-1.5957,-1.5958,-1.5959,0,-1.5804,-1.5831,-1.5831,-1.5844,-1.5847,-1.5868,-1.588,-1.5861,-1.5874,-1.5881,-1.5902,-1.592,-1.5935,-1.597,-1.5964,-1.598,-1.5971,-1.6012,-1.5973,-1.5979,-1.5973,-1.5973,-1.5975,-1.6021,-1.6023,-1.6024,-1.6025,0,-1.5906,-1.5899,-1.5916,-1.5931,-1.5945,-1.5956,-1.5964,-1.5976,-1.5958,-1.5973,-1.5994,-1.6005,-1.6027,-1.6046,-1.606,-1.606,-1.604,-1.6036,-1.6046,-1.6054,-1.6059,-1.6058,-1.5928,-1.6034,-1.6033,-1.6033,-1.6032,-1.6032,-1.5983,-1.6005,-1.6009,-1.6029,-1.6033,-1.6041,-1.6061,-1.6056,-1.6074,-1.609,-1.6077,-1.6103,-1.6107,-1.6123,-1.6126,-1.6146,-1.6129,-1.6142,-1.6146,-1.615,-1.6156,-1.6054,-1.6148,-1.6147,-1.6147,-1.6147,-1.6147,0,-1.6085,-1.6085,-1.6104,-1.6117,-1.6132,-1.611,-1.6118,-1.6132,-1.6155,-1.616,-1.6175,-1.6199,-1.6217,-1.6212,-1.6228,-1.6245,-1.6236,-1.625,-1.625,-1.625,-1.6169,-1.616,-1.6257,-1.6257,-1.6257,-1.6257,-1.6257,-1.6257,-1.614,-1.6177,-1.617,-1.6208,-1.6208,-1.6233,-1.624,-1.6247,-1.6251,-1.628,-1.6295,-1.6291,-1.6292,-1.6308,-1.6323,-1.6321,-1.6329,-1.6347,-1.6342,-1.6267,-1.6256,-1.6246,-1.6237,-1.6348,-1.6349,-1.6421,-1.6422,-1.6422]}]]